TimeCDT,TemperatureF,Dew PointF,Humidity,Sea Level PressureIn,VisibilityMPH,Wind Direction,Wind SpeedMPH,Gust SpeedMPH,PrecipitationIn,Events,Conditions,WindDirDegrees,DateUTC
12:54 AM,28.0,23.0,81,30.40,10.0,Calm,Calm,-,N/A,,Clear,0,2013-04-17 05:54:00
1:54 AM,27.0,23.0,85,30.40,10.0,Calm,Calm,-,N/A,,Clear,0,2013-04-17 06:54:00
2:54 AM,26.1,21.9,84,30.39,10.0,Calm,Calm,-,N/A,,Clear,0,2013-04-17 07:54:00
3:54 AM,23.0,19.9,88,30.40,10.0,Calm,Calm,-,N/A,,Clear,0,2013-04-17 08:54:00
4:54 AM,24.1,21.0,88,30.41,10.0,Calm,Calm,-,N/A,,Clear,0,2013-04-17 09:54:00
5:54 AM,26.1,21.9,84,30.40,10.0,NNE,6.9,-,N/A,,Clear,20,2013-04-17 10:54:00
6:15 AM,26.6,23.0,86,30.36,10.0,NNW,3.5,-,N/A,,Scattered Clouds,340,2013-04-17 11:15:00
6:26 AM,28.4,26.6,93,30.35,10.0,North,3.5,-,N/A,,Mostly Cloudy,360,2013-04-17 11:26:00
6:54 AM,30.0,27.0,88,30.40,10.0,NNE,3.5,-,N/A,,Overcast,20,2013-04-17 11:54:00
7:54 AM,33.1,28.9,85,30.40,10.0,NE,3.5,-,N/A,,Mostly Cloudy,50,2013-04-17 12:54:00
8:05 AM,33.8,28.4,81,30.37,10.0,East,4.6,-,N/A,,Scattered Clouds,100,2013-04-17 13:05:00
9:54 AM,39.0,30.0,70,30.37,10.0,East,5.8,-,N/A,,Partly Cloudy,100,2013-04-17 14:54:00
10:42 AM,39.2,28.4,65,30.30,10.0,ESE,8.1,-,N/A,,Overcast,110,2013-04-17 15:42:00
10:54 AM,39.9,28.9,65,30.35,10.0,East,5.8,-,N/A,,Overcast,90,2013-04-17 15:54:00
11:37 AM,41.0,28.4,61,30.29,10.0,ESE,8.1,-,N/A,,Overcast,110,2013-04-17 16:37:00
11:51 AM,41.0,28.4,61,30.29,10.0,ESE,8.1,-,N/A,,Mostly Cloudy,120,2013-04-17 16:51:00
11:54 AM,41.0,28.9,62,30.33,10.0,East,6.9,-,N/A,,Mostly Cloudy,100,2013-04-17 16:54:00
12:01 PM,41.0,28.4,61,30.28,10.0,SSE,10.4,-,N/A,,Overcast,150,2013-04-17 17:01:00
12:21 PM,41.0,28.4,61,30.27,10.0,SSE,5.8,-,N/A,,Scattered Clouds,150,2013-04-17 17:21:00
12:54 PM,42.1,28.0,58,30.30,10.0,East,6.9,-,N/A,,Mostly Cloudy,90,2013-04-17 17:54:00
1:54 PM,41.0,26.1,55,30.30,10.0,ESE,9.2,-,N/A,,Mostly Cloudy,120,2013-04-17 18:54:00
2:54 PM,42.1,25.0,51,30.28,10.0,Variable,5.8,-,N/A,,Overcast,0,2013-04-17 19:54:00
3:54 PM,42.1,27.0,55,30.24,10.0,ESE,11.5,-,N/A,,Overcast,120,2013-04-17 20:54:00
4:54 PM,42.1,28.9,60,30.18,10.0,East,12.7,18.4,N/A,,Overcast,100,2013-04-17 21:54:00
5:54 PM,41.0,28.9,62,30.18,10.0,ESE,11.5,16.1,N/A,,Overcast,110,2013-04-17 22:54:00
6:54 PM,41.0,28.9,62,30.16,10.0,ESE,5.8,-,N/A,,Overcast,110,2013-04-17 23:54:00
7:54 PM,39.9,28.9,65,30.12,10.0,East,6.9,-,N/A,,Overcast,100,2013-04-18 00:54:00
8:54 PM,39.0,28.9,67,30.12,10.0,East,8.1,-,N/A,,Overcast,90,2013-04-18 01:54:00
9:54 PM,37.9,28.9,70,30.09,10.0,East,5.8,-,N/A,,Overcast,90,2013-04-18 02:54:00
10:54 PM,37.9,30.0,73,30.06,10.0,Calm,Calm,-,N/A,,Overcast,0,2013-04-18 03:54:00
11:54 PM,37.0,30.9,79,30.04,10.0,ESE,5.8,-,N/A,,Overcast,110,2013-04-18 04:54:00